PAZ (43215 NORAD) Tracking and Keplerian Element Data

This shows tracking and keplerian element data for the satellite.

Feedback or suggestion? Click here.




ElementValue
Catalog43215
NamePAZ
Epoch Orbit34882
Epoch Day160.19683176
Epoch Year2024
RAAN167.1899
Inclination97.4446
Eccentricity0.0001734
Argument of Perigee86.3006
Mean Anonmoly273.8427
Mean Motion15.19146873
Decay Rate4.051E-05
L11 43215U 18020A 24160.19683176 .00004051 00000+0 19600-3 0 9998
L22 43215 97.4446 167.1899 0001734 86.3006 273.8427 15.19146873348823



Live tracking and technical data element details for PAZ (NORAD 43215). PAZ can be tracked NOW for your location showing map with azimuth and elevation plus other details from your city location.







IsCatalogInMostPopularTable: catalog: 43215, numindb: 644
Update: records affected: 1



GetName: 43215 PAZ

Hit Count: updated at: Mon, 17 Jun 2024 22:14:55 GMT